datetime,total release
1977-10-01,410.0
1977-10-02,410.0
1977-10-03,246.0
1977-10-04,109.0
1977-10-05,109.0
1977-10-06,134.0
1977-10-07,195.0
1977-10-08,201.0
1977-10-09,201.0
1977-10-10,91.0
1977-10-11,79.0
1977-10-12,79.0
1977-10-13,79.0
1977-10-14,79.0
1977-10-15,79.0
1977-10-16,79.0
1977-10-17,107.0
1977-10-18,109.0
1977-10-19,109.0
1977-10-20,109.0
1977-10-21,109.0
1977-10-22,109.0
1977-10-23,109.0
1977-10-24,118.0
1977-10-25,119.0
1977-10-26,119.0
1977-10-27,103.0
1977-10-28,101.0
1977-10-29,101.0
1977-10-30,101.0
1977-10-31,101.0
1977-11-01,101.0
1977-11-02,77.0
1977-11-03,72.0
1977-11-04,72.0
1977-11-05,0.0
1977-11-06,72.0
1977-11-07,86.0
1977-11-08,87.0
1977-11-09,87.0
1977-11-10,62.0
1977-11-11,60.0
1977-11-12,60.0
1977-11-13,60.0
1977-11-14,60.0
1977-11-15,60.0
1977-11-16,60.0
1977-11-17,47.0
1977-11-18,46.0
1977-11-19,46.0
1977-11-20,46.0
1977-11-21,46.0
1977-11-22,0.0
1977-11-23,65.0
1977-11-24,67.0
1977-11-25,67.0
1977-11-26,67.0
1977-11-27,67.0
1977-11-28,75.0
1977-11-29,78.0
1977-11-30,79.0
1977-12-01,79.0
1977-12-02,79.0
1977-12-03,79.0
1977-12-04,79.0
1977-12-05,128.0
1977-12-06,140.0
1977-12-07,83.0
1977-12-08,76.0
1977-12-09,76.0
1977-12-10,76.0
1977-12-11,76.0
1977-12-12,76.0
1977-12-13,76.0
1977-12-14,71.0
1977-12-15,70.0
1977-12-16,70.0
1977-12-17,70.0
1977-12-18,70.0
1977-12-19,95.0
1977-12-20,98.0
1977-12-21,98.0
1977-12-22,80.0
1977-12-23,79.0
1977-12-24,79.0
1977-12-25,79.0
1977-12-26,79.0
1977-12-27,79.0
1977-12-28,79.0
1977-12-29,79.0
1977-12-30,79.0
1977-12-31,79.0
1978-01-01,79.0
1978-01-02,79.0
1978-01-03,68.0
1978-01-04,67.0
1978-01-05,67.0
1978-01-06,78.0
1978-01-07,79.0
1978-01-08,79.0
1978-01-09,27.0
1978-01-10,13.0
1978-01-11,13.0
1978-01-12,13.0
1978-01-13,13.0
1978-01-14,13.0
1978-01-15,13.0
1978-01-16,60.0
1978-01-17,120.0
1978-01-18,123.0
1978-01-19,123.0
1978-01-20,123.0
1978-01-21,123.0
1978-01-22,123.0
1978-01-23,123.0
1978-01-24,95.0
1978-01-25,73.0
1978-01-26,63.0
1978-01-27,63.0
1978-01-28,63.0
1978-01-29,63.0
1978-01-30,63.0
1978-01-31,63.0
1978-02-01,63.0
1978-02-02,63.0
1978-02-03,63.0
1978-02-04,63.0
1978-02-05,63.0
1978-02-06,63.0
1978-02-07,63.0
1978-02-08,63.0
1978-02-09,63.0
1978-02-10,63.0
1978-02-11,63.0
1978-02-12,63.0
1978-02-13,63.0
1978-02-14,75.0
1978-02-15,76.0
1978-02-16,76.0
1978-02-17,72.0
1978-02-18,72.0
1978-02-19,72.0
1978-02-20,72.0
1978-02-21,72.0
1978-02-22,67.0
1978-02-23,67.0
1978-02-24,67.0
1978-02-25,67.0
1978-02-26,67.0
1978-02-27,67.0
1978-02-28,67.0
1978-03-01,67.0
1978-03-02,67.0
1978-03-03,82.0
1978-03-04,84.0
1978-03-05,84.0
1978-03-06,84.0
1978-03-07,75.0
1978-03-08,68.0
1978-03-09,56.0
1978-03-10,55.0
1978-03-11,55.0
1978-03-12,55.0
1978-03-13,55.0
1978-03-14,55.0
1978-03-15,55.0
1978-03-16,55.0
1978-03-17,55.0
1978-03-18,55.0
1978-03-19,55.0
1978-03-20,69.0
1978-03-21,70.0
1978-03-22,70.0
1978-03-23,70.0
1978-03-24,70.0
1978-03-25,70.0
1978-03-26,70.0
1978-03-27,83.0
1978-03-28,84.0
1978-03-29,84.0
1978-03-30,91.0
1978-03-31,120.0
1978-04-01,123.0
1978-04-02,123.0
1978-04-03,95.0
1978-04-04,92.0
1978-04-05,92.0
1978-04-06,92.0
1978-04-07,114.0
1978-04-08,116.0
1978-04-09,116.0
1978-04-10,166.0
1978-04-11,172.0
1978-04-12,172.0
1978-04-13,152.0
1978-04-14,82.0
1978-04-15,50.0
1978-04-16,50.0
1978-04-17,50.0
1978-04-18,50.0
1978-04-19,50.0
1978-04-20,50.0
1978-04-21,50.0
1978-04-22,50.0
1978-04-23,50.0
1978-04-24,50.0
1978-04-25,50.0
1978-04-26,50.0
1978-04-27,50.0
1978-04-28,50.0
1978-04-29,50.0
1978-04-30,50.0
1978-05-01,50.0
1978-05-02,50.0
1978-05-03,50.0
1978-05-04,50.0
1978-05-05,50.0
1978-05-06,50.0
1978-05-07,50.0
1978-05-08,50.0
1978-05-09,51.0
1978-05-10,51.0
1978-05-11,51.0
1978-05-12,51.0
1978-05-13,51.0
1978-05-14,51.0
1978-05-15,51.0
1978-05-16,51.0
1978-05-17,51.0
1978-05-18,51.0
1978-05-19,51.0
1978-05-20,51.0
1978-05-21,51.0
1978-05-22,51.0
1978-05-23,51.0
1978-05-24,51.0
1978-05-25,51.0
1978-05-26,51.0
1978-05-27,51.0
1978-05-28,51.0
1978-05-29,51.0
1978-05-30,51.0
1978-05-31,51.0
1978-06-01,51.0
1978-06-02,51.0
1978-06-03,51.0
1978-06-04,51.0
1978-06-05,51.0
1978-06-06,50.0
1978-06-07,50.0
1978-06-08,50.0
1978-06-09,50.0
1978-06-10,50.0
1978-06-11,50.0
1978-06-12,50.0
1978-06-13,50.0
1978-06-14,50.0
1978-06-15,50.0
1978-06-16,50.0
1978-06-17,50.0
1978-06-18,50.0
1978-06-19,50.0
1978-06-20,50.0
1978-06-21,50.0
1978-06-22,50.0
1978-06-23,50.0
1978-06-24,50.0
1978-06-25,51.0
1978-06-26,51.0
1978-06-27,51.0
1978-06-28,51.0
1978-06-29,51.0
1978-06-30,51.0
1978-07-01,51.0
1978-07-02,51.0
1978-07-03,51.0
1978-07-04,51.0
1978-07-05,51.0
1978-07-06,0.0
1978-07-07,51.0
1978-07-08,51.0
1978-07-09,51.0
1978-07-10,51.0
1978-07-11,50.0
1978-07-12,51.0
1978-07-13,51.0
1978-07-14,51.0
1978-07-15,51.0
1978-07-16,51.0
1978-07-17,51.0
1978-07-18,51.0
1978-07-19,51.0
1978-07-20,51.0
1978-07-21,51.0
1978-07-22,51.0
1978-07-23,51.0
1978-07-24,51.0
1978-07-25,51.0
1978-07-26,51.0
1978-07-27,50.0
1978-07-28,50.0
1978-07-29,50.0
1978-07-30,50.0
1978-07-31,50.0
1978-08-01,50.0
1978-08-02,50.0
1978-08-03,50.0
1978-08-04,50.0
1978-08-05,50.0
1978-08-06,50.0
1978-08-07,50.0
1978-08-08,50.0
1978-08-09,50.0
1978-08-10,194.0
1978-08-11,219.0
1978-08-12,219.0
1978-08-13,226.0
1978-08-14,235.0
1978-08-15,246.0
1978-08-16,247.0
1978-08-17,225.0
1978-08-18,203.0
1978-08-19,201.0
1978-08-20,201.0
1978-08-21,174.0
1978-08-22,163.0
1978-08-23,152.0
1978-08-24,150.0
1978-08-25,86.0
1978-08-26,50.0
1978-08-27,50.0
1978-08-28,82.0
1978-08-29,146.0
1978-08-30,150.0
1978-08-31,102.0
1978-09-01,54.0
1978-09-02,50.0
1978-09-03,50.0
1978-09-04,50.0
1978-09-05,50.0
1978-09-06,50.0
1978-09-07,50.0
1978-09-08,50.0
1978-09-09,50.0
1978-09-10,50.0
1978-09-11,50.0
1978-09-12,50.0
1978-09-13,50.0
1978-09-14,50.0
1978-09-15,50.0
1978-09-16,50.0
1978-09-17,50.0
1978-09-18,50.0
1978-09-19,50.0
1978-09-20,50.0
1978-09-21,50.0
1978-09-22,50.0
1978-09-23,50.0
1978-09-24,50.0
1978-09-25,50.0
1978-09-26,50.0
1978-09-27,50.0
1978-09-28,50.0
1978-09-29,50.0
1978-09-30,50.0
1978-10-01,51.0
1978-10-02,50.0
1978-10-03,50.0
1978-10-04,50.0
1978-10-05,50.0
1978-10-06,50.0
1978-10-07,50.0
1978-10-08,50.0
1978-10-09,50.0
1978-10-10,50.0
1978-10-11,50.0
1978-10-12,50.0
1978-10-13,50.0
1978-10-14,50.0
1978-10-15,50.0
1978-10-16,50.0
1978-10-17,51.0
1978-10-18,51.0
1978-10-19,50.0
1978-10-20,50.0
1978-10-21,50.0
1978-10-22,50.0
1978-10-23,50.0
1978-10-24,50.0
1978-10-25,50.0
1978-10-26,50.0
1978-10-27,50.0
1978-10-28,50.0
1978-10-29,50.0
1978-10-30,50.0
1978-10-31,50.0
1978-11-01,50.0
1978-11-02,50.0
1978-11-03,50.0
1978-11-04,50.0
1978-11-05,50.0
1978-11-06,50.0
1978-11-07,50.0
1978-11-08,50.0
1978-11-09,50.0
1978-11-10,50.0
1978-11-11,50.0
1978-11-12,50.0
1978-11-13,19.0
1978-11-14,14.0
1978-11-15,14.0
1978-11-16,44.0
1978-11-17,50.0
1978-11-18,50.0
1978-11-19,50.0
1978-11-20,50.0
1978-11-21,50.0
1978-11-22,50.0
1978-11-23,50.0
1978-11-24,50.0
1978-11-25,50.0
1978-11-26,50.0
1978-11-27,50.0
1978-11-28,0.0
1978-11-29,50.0
1978-11-30,50.0
1978-12-01,69.0
1978-12-02,72.0
1978-12-03,72.0
1978-12-04,72.0
1978-12-05,72.0
1978-12-06,72.0
1978-12-07,72.0
1978-12-08,72.0
1978-12-09,72.0
1978-12-10,72.0
1978-12-11,72.0
1978-12-12,72.0
1978-12-13,72.0
1978-12-14,64.0
1978-12-15,63.0
1978-12-16,63.0
1978-12-17,63.0
1978-12-18,63.0
1978-12-19,63.0
1978-12-20,78.0
1978-12-21,79.0
1978-12-22,76.0
1978-12-23,76.0
1978-12-24,76.0
1978-12-25,76.0
1978-12-26,76.0
1978-12-27,76.0
1978-12-28,76.0
1978-12-29,73.0
1978-12-30,72.0
1978-12-31,66.0
1979-01-01,65.0
1979-01-02,65.0
1979-01-03,65.0
1979-01-04,65.0
1979-01-05,65.0
1979-01-06,65.0
1979-01-07,65.0
1979-01-08,65.0
1979-01-09,65.0
1979-01-10,65.0
1979-01-11,65.0
1979-01-12,65.0
1979-01-13,79.0
1979-01-14,81.0
1979-01-15,81.0
1979-01-16,81.0
1979-01-17,81.0
1979-01-18,81.0
1979-01-19,81.0
1979-01-20,66.0
1979-01-21,65.0
1979-01-22,65.0
1979-01-23,65.0
1979-01-24,65.0
1979-01-25,0.0
1979-01-26,59.0
1979-01-27,58.0
1979-01-28,58.0
1979-01-29,58.0
1979-01-30,58.0
1979-01-31,58.0
1979-02-01,58.0
1979-02-02,58.0
1979-02-03,58.0
1979-02-04,58.0
1979-02-05,58.0
1979-02-06,58.0
1979-02-07,58.0
1979-02-08,58.0
1979-02-09,58.0
1979-02-10,58.0
1979-02-11,58.0
1979-02-12,58.0
1979-02-13,58.0
1979-02-14,58.0
1979-02-15,58.0
1979-02-16,58.0
1979-02-17,58.0
1979-02-18,58.0
1979-02-19,58.0
1979-02-20,58.0
1979-02-21,58.0
1979-02-22,58.0
1979-02-23,58.0
1979-02-24,58.0
1979-02-25,58.0
1979-02-26,58.0
1979-02-27,58.0
1979-02-28,58.0
1979-03-01,58.0
1979-03-02,58.0
1979-03-03,58.0
1979-03-04,58.0
1979-03-05,58.0
1979-03-06,58.0
1979-03-07,58.0
1979-03-08,58.0
1979-03-09,58.0
1979-03-10,58.0
1979-03-11,58.0
1979-03-12,58.0
1979-03-13,58.0
1979-03-14,58.0
1979-03-15,58.0
1979-03-16,55.0
1979-03-17,55.0
1979-03-18,55.0
1979-03-19,55.0
1979-03-20,55.0
1979-03-21,55.0
1979-03-22,88.0
1979-03-23,92.0
1979-03-24,92.0
1979-03-25,62.0
1979-03-26,60.0
1979-03-27,60.0
1979-03-28,60.0
1979-03-29,60.0
1979-03-30,60.0
1979-03-31,60.0
1979-04-01,60.0
1979-04-02,75.0
1979-04-03,76.0
1979-04-04,76.0
1979-04-05,76.0
1979-04-06,76.0
1979-04-07,76.0
1979-04-08,76.0
1979-04-09,76.0
1979-04-10,76.0
1979-04-11,76.0
1979-04-12,76.0
1979-04-13,76.0
1979-04-14,76.0
1979-04-15,76.0
1979-04-16,76.0
1979-04-17,76.0
1979-04-18,143.0
1979-04-19,74.0
1979-04-20,50.0
1979-04-21,50.0
1979-04-22,50.0
1979-04-23,50.0
1979-04-24,50.0
1979-04-25,50.0
1979-04-26,50.0
1979-04-27,50.0
1979-04-28,50.0
1979-04-29,50.0
1979-04-30,50.0
1979-05-01,50.0
1979-05-02,50.0
1979-05-03,50.0
1979-05-04,50.0
1979-05-05,50.0
1979-05-06,50.0
1979-05-07,50.0
1979-05-08,50.0
1979-05-09,50.0
1979-05-10,50.0
1979-05-11,50.0
1979-05-12,50.0
1979-05-13,50.0
1979-05-14,50.0
1979-05-15,50.0
1979-05-16,50.0
1979-05-17,50.0
1979-05-18,50.0
1979-05-19,50.0
1979-05-20,50.0
1979-05-21,50.0
1979-05-22,50.0
1979-05-23,50.0
1979-05-24,50.0
1979-05-25,50.0
1979-05-26,50.0
1979-05-27,50.0
1979-05-28,50.0
1979-05-29,50.0
1979-05-30,50.0
1979-05-31,50.0
1979-06-01,50.0
1979-06-02,50.0
1979-06-03,50.0
1979-06-04,50.0
1979-06-05,50.0
1979-06-06,50.0
1979-06-07,50.0
1979-06-08,50.0
1979-06-09,50.0
1979-06-10,50.0
1979-06-11,50.0
1979-06-12,50.0
1979-06-13,50.0
1979-06-14,50.0
1979-06-15,50.0
1979-06-16,50.0
1979-06-17,50.0
1979-06-18,50.0
1979-06-19,50.0
1979-06-20,50.0
1979-06-21,47.0
1979-06-22,50.0
1979-06-23,58.0
1979-06-24,262.0
1979-06-25,686.0
1979-06-26,1007.0
1979-06-27,1195.0
1979-06-28,1289.0
1979-06-29,1279.0
1979-06-30,1329.0
1979-07-01,1322.0
1979-07-02,1304.0
1979-07-03,1247.0
1979-07-04,1176.0
1979-07-05,1104.0
1979-07-06,1022.0
1979-07-07,961.0
1979-07-08,903.0
1979-07-09,855.0
1979-07-10,804.0
1979-07-11,742.0
1979-07-12,685.0
1979-07-13,629.0
1979-07-14,583.0
1979-07-15,565.0
1979-07-16,551.0
1979-07-17,546.0
1979-07-18,521.0
1979-07-19,498.0
1979-07-20,468.0
1979-07-21,451.0
1979-07-22,443.0
1979-07-23,425.0
1979-07-24,413.0
1979-07-25,399.0
1979-07-26,365.0
1979-07-27,321.0
1979-07-28,284.0
1979-07-29,232.0
1979-07-30,167.0
1979-07-31,122.0
1979-08-01,93.0
1979-08-02,68.0
1979-08-03,85.0
1979-08-04,72.0
1979-08-05,58.0
1979-08-06,57.0
1979-08-07,53.0
1979-08-08,52.0
1979-08-09,52.0
1979-08-10,50.0
1979-08-11,50.0
1979-08-12,50.0
1979-08-13,50.0
1979-08-14,50.0
1979-08-15,54.0
1979-08-16,82.0
1979-08-17,178.0
1979-08-18,245.0
1979-08-19,265.0
1979-08-20,279.0
1979-08-21,283.0
1979-08-22,272.0
1979-08-23,259.0
1979-08-24,243.0
1979-08-25,235.0
1979-08-26,215.0
1979-08-27,195.0
1979-08-28,182.0
1979-08-29,177.0
1979-08-30,172.0
1979-08-31,167.0
1979-09-01,163.0
1979-09-02,159.0
1979-09-03,155.0
1979-09-04,122.0
1979-09-05,119.0
1979-09-06,80.0
1979-09-07,92.0
1979-09-08,101.0
1979-09-09,108.0
1979-09-10,109.0
1979-09-11,109.0
1979-09-12,109.0
1979-09-13,109.0
1979-09-14,109.0
1979-09-15,109.0
1979-09-16,109.0
1979-09-17,109.0
1979-09-18,109.0
1979-09-19,70.0
1979-09-20,50.0
1979-09-21,50.0
1979-09-22,50.0
1979-09-23,50.0
1979-09-24,50.0
1979-09-25,49.0
1979-09-26,50.0
1979-09-27,50.0
1979-09-28,50.0
1979-09-29,50.0
1979-09-30,50.0
1979-10-01,50.0
1979-10-02,50.0
1979-10-03,50.0
1979-10-04,50.0
1979-10-05,50.0
1979-10-06,50.0
1979-10-07,50.0
1979-10-08,50.0
1979-10-09,50.0
1979-10-10,50.0
1979-10-11,50.0
1979-10-12,50.0
1979-10-13,50.0
1979-10-14,50.0
1979-10-15,50.0
1979-10-16,70.0
1979-10-17,98.0
1979-10-18,98.0
1979-10-19,78.0
1979-10-20,50.0
1979-10-21,50.0
1979-10-22,50.0
1979-10-23,50.0
1979-10-24,50.0
1979-10-25,50.0
1979-10-26,50.0
1979-10-27,50.0
1979-10-28,50.0
1979-10-29,50.0
1979-10-30,50.0
1979-10-31,50.0
1979-11-01,50.0
1979-11-02,50.0
1979-11-03,50.0
1979-11-04,50.0
1979-11-05,50.0
1979-11-06,50.0
1979-11-07,50.0
1979-11-08,50.0
1979-11-09,50.0
1979-11-10,50.0
1979-11-11,50.0
1979-11-12,50.0
1979-11-13,22.0
1979-11-14,14.0
1979-11-15,14.0
1979-11-16,14.0
1979-11-17,14.0
1979-11-18,14.0
1979-11-19,54.0
1979-11-20,92.0
1979-11-21,95.0
1979-11-22,95.0
1979-11-23,58.0
1979-11-24,50.0
1979-11-25,50.0
1979-11-26,50.0
1979-11-27,50.0
1979-11-28,50.0
1979-11-29,50.0
1979-11-30,50.0
1979-12-01,50.0
1979-12-02,50.0
1979-12-03,77.0
1979-12-04,81.0
1979-12-05,81.0
1979-12-06,81.0
1979-12-07,81.0
1979-12-08,81.0
1979-12-09,81.0
1979-12-10,81.0
1979-12-11,81.0
1979-12-12,81.0
1979-12-13,81.0
1979-12-14,65.0
1979-12-15,63.0
1979-12-16,63.0
1979-12-17,63.0
1979-12-18,63.0
1979-12-19,63.0
1979-12-20,63.0
1979-12-21,63.0
1979-12-22,63.0
1979-12-23,63.0
1979-12-24,71.0
1979-12-25,72.0
1979-12-26,72.0
1979-12-27,72.0
1979-12-28,72.0
1979-12-29,72.0
1979-12-30,72.0
1979-12-31,72.0
1980-01-01,72.0
1980-01-02,72.0
1980-01-03,70.0
1980-01-04,70.0
1980-01-05,70.0
1980-01-06,75.0
1980-01-07,76.0
1980-01-08,76.0
1980-01-09,76.0
1980-01-10,76.0
1980-01-11,86.0
1980-01-12,87.0
1980-01-13,101.0
1980-01-14,103.0
1980-01-15,123.0
1980-01-16,126.0
1980-01-17,126.0
1980-01-18,96.0
1980-01-19,79.0
1980-01-20,76.0
1980-01-21,76.0
1980-01-22,76.0
1980-01-23,76.0
1980-01-24,76.0
1980-01-25,76.0
1980-01-26,76.0
1980-01-27,76.0
1980-01-28,76.0
1980-01-29,76.0
1980-01-30,134.0
1980-01-31,150.0
1980-02-01,84.0
1980-02-02,74.0
1980-02-03,72.0
1980-02-04,72.0
1980-02-05,72.0
1980-02-06,70.0
1980-02-07,70.0
1980-02-08,65.0
1980-02-09,65.0
1980-02-10,65.0
1980-02-11,65.0
1980-02-12,65.0
1980-02-13,60.0
1980-02-14,60.0
1980-02-15,60.0
1980-02-16,60.0
1980-02-17,60.0
1980-02-18,60.0
1980-02-19,60.0
1980-02-20,60.0
1980-02-21,82.0
1980-02-22,84.0
1980-02-23,84.0
1980-02-24,84.0
1980-02-25,84.0
1980-02-26,84.0
1980-02-27,84.0
1980-02-28,84.0
1980-02-29,84.0
1980-03-01,84.0
1980-03-02,76.0
1980-03-03,76.0
1980-03-04,76.0
1980-03-05,76.0
1980-03-06,76.0
1980-03-07,76.0
1980-03-08,76.0
1980-03-09,76.0
1980-03-10,76.0
1980-03-11,76.0
1980-03-12,76.0
1980-03-13,76.0
1980-03-14,66.0
1980-03-15,61.0
1980-03-16,60.0
1980-03-17,60.0
1980-03-18,60.0
1980-03-19,60.0
1980-03-20,60.0
1980-03-21,60.0
1980-03-22,60.0
1980-03-23,60.0
1980-03-24,60.0
1980-03-25,60.0
1980-03-26,60.0
1980-03-27,60.0
1980-03-28,60.0
1980-03-29,64.0
1980-03-30,71.0
1980-03-31,72.0
1980-04-01,72.0
1980-04-02,72.0
1980-04-03,72.0
1980-04-04,72.0
1980-04-05,72.0
1980-04-06,72.0
1980-04-07,72.0
1980-04-08,72.0
1980-04-09,72.0
1980-04-10,72.0
1980-04-11,72.0
1980-04-12,72.0
1980-04-13,72.0
1980-04-14,72.0
1980-04-15,72.0
1980-04-16,72.0
1980-04-17,72.0
1980-04-18,72.0
1980-04-19,76.0
1980-04-20,81.0
1980-04-21,81.0
1980-04-22,149.0
1980-04-23,187.0
1980-04-24,229.0
1980-04-25,164.0
1980-04-26,131.0
1980-04-27,129.0
1980-04-28,129.0
1980-04-29,150.0
1980-04-30,227.0
1980-05-01,240.0
1980-05-02,189.0
1980-05-03,186.0
1980-05-04,221.0
1980-05-05,282.0
1980-05-06,309.0
1980-05-07,351.0
1980-05-08,358.0
1980-05-09,358.0
1980-05-10,358.0
1980-05-11,358.0
1980-05-12,358.0
1980-05-13,358.0
1980-05-14,358.0
1980-05-15,358.0
1980-05-16,358.0
1980-05-17,358.0
1980-05-18,358.0
1980-05-19,366.0
1980-05-20,367.0
1980-05-21,367.0
1980-05-22,367.0
1980-05-23,367.0
1980-05-24,367.0
1980-05-25,367.0
1980-05-26,367.0
1980-05-27,367.0
1980-05-28,359.0
1980-05-29,764.0
1980-05-30,1088.0
1980-05-31,923.0
1980-06-01,985.0
1980-06-02,1062.0
1980-06-03,1028.0
1980-06-04,1208.0
1980-06-05,1232.0
1980-06-06,1232.0
1980-06-07,1232.0
1980-06-08,1232.0
1980-06-09,1232.0
1980-06-10,1232.0
1980-06-11,1232.0
1980-06-12,1232.0
1980-06-13,1232.0
1980-06-14,1232.0
1980-06-15,1232.0
1980-06-16,1232.0
1980-06-17,1232.0
1980-06-18,1232.0
1980-06-19,1232.0
1980-06-20,1197.0
1980-06-21,1133.0
1980-06-22,1165.0
1980-06-23,1134.0
1980-06-24,1135.0
1980-06-25,1132.0
1980-06-26,1119.0
1980-06-27,1125.0
1980-06-28,1145.0
1980-06-29,1124.0
1980-06-30,976.0
1980-07-01,893.0
1980-07-02,900.0
1980-07-03,958.0
1980-07-04,842.0
1980-07-05,828.0
1980-07-06,821.0
1980-07-07,792.0
1980-07-08,765.0
1980-07-09,733.0
1980-07-10,701.0
1980-07-11,695.0
1980-07-12,708.0
1980-07-13,680.0
1980-07-14,649.0
1980-07-15,601.0
1980-07-16,554.0
1980-07-17,517.0
1980-07-18,476.0
1980-07-19,446.0
1980-07-20,423.0
1980-07-21,401.0
1980-07-22,379.0
1980-07-23,360.0
1980-07-24,339.0
1980-07-25,321.0
1980-07-26,303.0
1980-07-27,284.0
1980-07-28,269.0
1980-07-29,240.0
1980-07-30,225.0
1980-07-31,221.0
1980-08-01,211.0
1980-08-02,195.0
1980-08-03,182.0
1980-08-04,180.0
1980-08-05,167.0
1980-08-06,188.0
1980-08-07,161.0
1980-08-08,124.0
1980-08-09,72.0
1980-08-10,50.0
1980-08-11,118.0
1980-08-12,150.0
1980-08-13,150.0
1980-08-14,119.0
1980-08-15,147.0
1980-08-16,150.0
1980-08-17,150.0
1980-08-18,150.0
1980-08-19,150.0
1980-08-20,131.0
1980-08-21,88.0
1980-08-22,84.0
1980-08-23,84.0
1980-08-24,125.0
1980-08-25,146.0
1980-08-26,199.0
1980-08-27,204.0
1980-08-28,204.0
1980-08-29,204.0
1980-08-30,204.0
1980-08-31,204.0
1980-09-01,157.0
1980-09-02,147.0
1980-09-03,104.0
1980-09-04,97.0
1980-09-05,113.0
1980-09-06,112.0
1980-09-07,112.0
1980-09-08,112.0
1980-09-09,243.0
1980-09-10,259.0
1980-09-11,209.0
1980-09-12,165.0
1980-09-13,161.0
1980-09-14,161.0
1980-09-15,161.0
1980-09-16,161.0
1980-09-17,103.0
1980-09-18,103.0
1980-09-19,103.0
1980-09-20,103.0
1980-09-21,103.0
1980-09-22,101.0
1980-09-23,98.0
1980-09-24,126.0
1980-09-25,117.0
1980-09-26,112.0
1980-09-27,112.0
1980-09-28,112.0
1980-09-29,112.0
1980-09-30,112.0
1980-10-01,112.0
1980-10-02,112.0
1980-10-03,99.0
1980-10-04,98.0
1980-10-05,88.0
1980-10-06,87.0
1980-10-07,87.0
1980-10-08,87.0
1980-10-09,87.0
1980-10-10,87.0
1980-10-11,95.0
1980-10-12,99.0
1980-10-13,92.0
1980-10-14,106.0
1980-10-15,86.0
1980-10-16,82.0
1980-10-17,102.0
1980-10-18,119.0
1980-10-19,119.0
1980-10-20,31.0
1980-10-21,15.0
1980-10-22,15.0
1980-10-23,15.0
1980-10-24,15.0
1980-10-25,15.0
1980-10-26,15.0
1980-10-27,15.0
1980-10-28,15.0
1980-10-29,15.0
1980-10-30,15.0
1980-10-31,15.0
1980-11-01,154.0
1980-11-02,173.0
1980-11-03,135.0
1980-11-04,150.0
1980-11-05,150.0
1980-11-06,150.0
1980-11-07,150.0
1980-11-08,150.0
1980-11-09,150.0
1980-11-10,150.0
1980-11-11,88.0
1980-11-12,81.0
1980-11-13,81.0
1980-11-14,96.0
1980-11-15,98.0
1980-11-16,77.0
1980-11-17,76.0
1980-11-18,50.0
1980-11-19,62.0
1980-11-20,63.0
1980-11-21,63.0
1980-11-22,63.0
1980-11-23,63.0
1980-11-24,63.0
1980-11-25,63.0
1980-11-26,63.0
1980-11-27,63.0
1980-11-28,63.0
1980-11-29,63.0
1980-11-30,63.0
1980-12-01,74.0
1980-12-02,74.0
1980-12-03,74.0
1980-12-04,74.0
1980-12-05,74.0
1980-12-06,74.0
1980-12-07,74.0
1980-12-08,74.0
1980-12-09,74.0
1980-12-10,74.0
1980-12-11,74.0
1980-12-12,74.0
1980-12-13,74.0
1980-12-14,74.0
1980-12-15,74.0
1980-12-16,74.0
1980-12-17,67.0
1980-12-18,70.0
1980-12-19,70.0
1980-12-20,70.0
1980-12-21,70.0
1980-12-22,70.0
1980-12-23,80.0
1980-12-24,81.0
1980-12-25,81.0
1980-12-26,81.0
1980-12-27,71.0
1980-12-28,70.0
1980-12-29,70.0
1980-12-30,64.0
1980-12-31,63.0
1981-01-01,63.0
1981-01-02,63.0
1981-01-03,63.0
1981-01-04,63.0
1981-01-05,63.0
1981-01-06,63.0
1981-01-07,63.0
1981-01-08,56.0
1981-01-09,55.0
1981-01-10,55.0
1981-01-11,55.0
1981-01-12,55.0
1981-01-13,52.0
1981-01-14,50.0
1981-01-15,50.0
1981-01-16,50.0
1981-01-17,50.0
1981-01-18,50.0
1981-01-19,50.0
1981-01-20,50.0
1981-01-21,50.0
1981-01-22,50.0
1981-01-23,50.0
1981-01-24,50.0
1981-01-25,50.0
1981-01-26,50.0
1981-01-27,50.0
1981-01-28,50.0
1981-01-29,51.0
1981-01-30,55.0
1981-01-31,55.0
1981-02-01,55.0
1981-02-02,55.0
1981-02-03,55.0
1981-02-04,55.0
1981-02-05,55.0
1981-02-06,55.0
1981-02-07,55.0
1981-02-08,55.0
1981-02-09,55.0
1981-02-10,62.0
1981-02-11,65.0
1981-02-12,65.0
1981-02-13,65.0
1981-02-14,65.0
1981-02-15,65.0
1981-02-16,65.0
1981-02-17,65.0
1981-02-18,65.0
1981-02-19,65.0
1981-02-20,56.0
1981-02-21,55.0
1981-02-22,55.0
1981-02-23,55.0
1981-02-24,50.0
1981-02-25,50.0
1981-02-26,50.0
1981-02-27,50.0
1981-02-28,50.0
1981-03-01,50.0
1981-03-02,50.0
1981-03-03,50.0
1981-03-04,50.0
1981-03-05,64.0
1981-03-06,65.0
1981-03-07,65.0
1981-03-08,60.0
1981-03-09,60.0
1981-03-10,60.0
1981-03-11,53.0
1981-03-12,53.0
1981-03-13,53.0
1981-03-14,53.0
1981-03-15,53.0
1981-03-16,48.0
1981-03-17,48.0
1981-03-18,48.0
1981-03-19,48.0
1981-03-20,48.0
1981-03-21,48.0
1981-03-22,48.0
1981-03-23,48.0
1981-03-24,48.0
1981-03-25,48.0
1981-03-26,48.0
1981-03-27,64.0
1981-03-28,65.0
1981-03-29,65.0
1981-03-30,65.0
1981-03-31,65.0
1981-04-01,65.0
1981-04-02,65.0
1981-04-03,65.0
1981-04-04,65.0
1981-04-05,60.0
1981-04-06,60.0
1981-04-07,60.0
1981-04-08,60.0
1981-04-09,60.0
1981-04-10,60.0
1981-04-11,60.0
1981-04-12,60.0
1981-04-13,65.0
1981-04-14,76.0
1981-04-15,107.0
1981-04-16,128.0
1981-04-17,129.0
1981-04-18,129.0
1981-04-19,129.0
1981-04-20,140.0
1981-04-21,77.0
1981-04-22,50.0
1981-04-23,50.0
1981-04-24,50.0
1981-04-25,50.0
1981-04-26,50.0
1981-04-27,50.0
1981-04-28,49.0
1981-04-29,50.0
1981-04-30,50.0
1981-05-01,50.0
1981-05-02,50.0
1981-05-03,50.0
1981-05-04,19.0
1981-05-05,14.0
1981-05-06,38.0
1981-05-07,50.0
1981-05-08,50.0
1981-05-09,50.0
1981-05-10,50.0
1981-05-11,166.0
1981-05-12,179.0
1981-05-13,166.0
1981-05-14,165.0
1981-05-15,151.0
1981-05-16,150.0
1981-05-17,150.0
1981-05-18,150.0
1981-05-19,150.0
1981-05-20,66.0
1981-05-21,50.0
1981-05-22,50.0
1981-05-23,50.0
1981-05-24,50.0
1981-05-25,50.0
1981-05-26,50.0
1981-05-27,50.0
1981-05-28,50.0
1981-05-29,50.0
1981-05-30,50.0
1981-05-31,50.0
1981-06-01,50.0
1981-06-02,50.0
1981-06-03,50.0
1981-06-04,50.0
1981-06-05,50.0
1981-06-06,50.0
1981-06-07,50.0
1981-06-08,50.0
1981-06-09,50.0
1981-06-10,50.0
1981-06-11,50.0
1981-06-12,50.0
1981-06-13,50.0
1981-06-14,50.0
1981-06-15,50.0
1981-06-16,50.0
1981-06-17,50.0
1981-06-18,50.0
1981-06-19,50.0
1981-06-20,50.0
1981-06-21,50.0
1981-06-22,50.0
1981-06-23,50.0
1981-06-24,50.0
1981-06-25,50.0
1981-06-26,50.0
1981-06-27,50.0
1981-06-28,50.0
1981-06-29,50.0
1981-06-30,50.0
1981-07-01,50.0
1981-07-02,50.0
1981-07-03,50.0
1981-07-04,50.0
1981-07-05,50.0
1981-07-06,50.0
1981-07-07,50.0
1981-07-08,50.0
1981-07-09,50.0
1981-07-10,50.0
1981-07-11,50.0
1981-07-12,50.0
1981-07-13,50.0
1981-07-14,50.0
1981-07-15,50.0
1981-07-16,50.0
1981-07-17,50.0
1981-07-18,50.0
1981-07-19,50.0
1981-07-20,50.0
1981-07-21,50.0
1981-07-22,50.0
1981-07-23,50.0
1981-07-24,50.0
1981-07-25,50.0
1981-07-26,50.0
1981-07-27,50.0
1981-07-28,50.0
1981-07-29,50.0
1981-07-30,50.0
1981-07-31,50.0
1981-08-01,50.0
1981-08-02,50.0
1981-08-03,50.0
1981-08-04,50.0
1981-08-05,50.0
1981-08-06,50.0
1981-08-07,50.0
1981-08-08,50.0
1981-08-09,50.0
1981-08-10,50.0
1981-08-11,50.0
1981-08-12,50.0
1981-08-13,50.0
1981-08-14,50.0
1981-08-15,50.0
1981-08-16,50.0
1981-08-17,50.0
1981-08-18,50.0
1981-08-19,50.0
1981-08-20,50.0
1981-08-21,50.0
1981-08-22,50.0
1981-08-23,50.0
1981-08-24,50.0
1981-08-25,50.0
1981-08-26,50.0
1981-08-27,50.0
1981-08-28,50.0
1981-08-29,50.0
1981-08-30,50.0
1981-08-31,50.0
1981-09-01,50.0
1981-09-02,50.0
1981-09-03,50.0
1981-09-04,50.0
1981-09-05,50.0
1981-09-06,50.0
1981-09-07,50.0
1981-09-08,50.0
1981-09-09,50.0
1981-09-10,50.0
1981-09-11,50.0
1981-09-12,50.0
1981-09-13,50.0
1981-09-14,50.0
1981-09-15,50.0
1981-09-16,50.0
1981-09-17,50.0
1981-09-18,50.0
1981-09-19,50.0
1981-09-20,50.0
1981-09-21,50.0
1981-09-22,50.0
1981-09-23,50.0
1981-09-24,50.0
1981-09-25,50.0
1981-09-26,50.0
1981-09-27,50.0
1981-09-28,50.0
1981-09-29,50.0
1981-09-30,50.0
1981-10-01,50.0
1981-10-02,50.0
1981-10-03,50.0
1981-10-04,50.0
1981-10-05,50.0
1981-10-06,50.0
1981-10-07,50.0
1981-10-08,50.0
1981-10-09,50.0
1981-10-10,50.0
1981-10-11,60.0
1981-10-12,50.0
1981-10-13,50.0
1981-10-14,50.0
1981-10-15,50.0